This is the latest recevied weather packets stored in our database for station/object KD8OZS. If no packets are shown the sender has not sent any weather packets the latest 10 day(s).
| Time | Temp. | Humidity | Pressure | Rain* | Wind** | Luminosity | Snow |
|---|---|---|---|---|---|---|---|
| 1787690576 | 26.67° C | 57% | 1011.2 hPa | 0 mm | - | 429 W/m² | - |
| 1787690272 | 26.67° C | 60% | 1011.1 hPa | 0 mm | - | 477 W/m² | - |
| 1787689969 | 25.56° C | 61% | 1011.2 hPa | 0 mm | - | 416 W/m² | - |
| 1787689664 | 26.67° C | 56% | 1011 hPa | 0 mm | - | 448 W/m² | - |
| 1787689360 | 27.78° C | 55% | 1011.1 hPa | 0 mm | - | 448 W/m² | - |
| 1787689058 | 26.11° C | 57% | 1011.4 hPa | 0 mm | - | 406 W/m² | - |
| 1787688755 | 26.11° C | 60% | 1011.4 hPa | 0 mm | - | 426 W/m² | - |
| 1787688450 | 26.11° C | 58% | 1011.7 hPa | 0 mm | - | 471 W/m² | - |
| 1787688145 | 26.11° C | 58% | 1011.6 hPa | 0 mm | - | 486 W/m² | - |
| 1787687841 | 26.67° C | 57% | 1011.8 hPa | 0 mm | - | 471 W/m² | - |
| 1787687535 | 26.11° C | 58% | 1011.6 hPa | 0 mm | - | 415 W/m² | - |
| 1787687231 | 26.11° C | 64% | 1011.8 hPa | 0 mm | - | 511 W/m² | - |
| 1787686926 | 26.11° C | 56% | 1011.9 hPa | 0 mm | - | 522 W/m² | - |
| 1787686623 | 26.11° C | 58% | 1011.8 hPa | 0 mm | - | 548 W/m² | - |
| 1787686318 | 25.56° C | 59% | 1012 hPa | 0 mm | - | 503 W/m² | - |
| 1787686013 | 25.56° C | 62% | 1011.7 hPa | 0 mm | - | 455 W/m² | - |
| 1787685709 | 26.11° C | 60% | 1012 hPa | 0 mm | - | 521 W/m² | - |
| 1787685408 | 25.56° C | 59% | 1012 hPa | 0 mm | - | 583 W/m² | - |
| 1787685108 | 25.56° C | 59% | 1012 hPa | 0 mm | - | 564 W/m² | - |
| 1787684804 | 26.11° C | 58% | 1012.1 hPa | 0 mm | - | 602 W/m² | - |
| 1787684503 | 26.11° C | 58% | 1012.2 hPa | 0 mm | - | 707 W/m² | - |
| 1787684198 | 25° C | 60% | 1012.2 hPa | 0 mm | - | 741 W/m² | - |
| 1787683893 | 25.56° C | 58% | 1012.3 hPa | 0 mm | - | 721 W/m² | - |
| 1787683588 | 25.56° C | 55% | 1012.2 hPa | 0 mm | - | 628 W/m² | - |
| 1787683283 | 25.56° C | 60% | 1012.5 hPa | 0 mm | - | 526 W/m² | - |
* Rain latest hour (hover to see other rain measurements)
** Current wind speed in m/s (hover to see current wind gust speed)